Le nostre stazioni meteo in Italia

Pubblicità
Il mio iltempo24.it
Geneve-Cointrin, Svizzera (6700): Temperatura & dewpoint: 17.01.2017 19:00:00 - 23.01.2017 19:00:00 (CET)Geneve-Cointrin, Svizzera (6700): velocità del vento & gusts: 17.01.2017 19:00:00 - 23.01.2017 19:00:00 (CET)Geneve-Cointrin, Svizzera (6700): direzione del vento: 17.01.2017 19:00:00 - 23.01.2017 19:00:00 (CET)Geneve-Cointrin, Svizzera (6700): reduced air pressure: 17.01.2017 19:00:00 - 23.01.2017 19:00:00 (CET)Geneve-Cointrin, Svizzera (6700): visibility: 17.01.2017 19:00:00 - 23.01.2017 19:00:00 (CET)Geneve-Cointrin, Svizzera (6700): ore di luce: 17.01.2017 19:00:00 - 23.01.2017 19:00:00 (CET)Geneve-Cointrin, Svizzera (6700): precipitazioni: 17.01.2017 19:00:00 - 23.01.2017 19:00:00 (CET)
Data & Tempo tt [°C] td [°C] ff [km/h] ff [kn] fx [km/h] fx [kn] dd ppp [hPa] vv [km] sd [min] rr [mm]
23.01.2017 19:00:00 -2,2 -4,2 4 2 - - NNO 1024,7 6 0 0,0
23.01.2017 18:00:00 -2,2 -4,2 4 2 9 5 - 1024,4 6 0 0,0
23.01.2017 17:00:00 -2,0 -4,3 2 1 16 8 - 1024,2 6 0 0,0
23.01.2017 16:00:00 -1,7 -4,0 5 3 - - N 1024,0 6 0 0,0
23.01.2017 15:00:00 -1,6 -3,9 8 4 16 9 N 1024,0 6 0 0,0
23.01.2017 14:00:00 -1,8 -3,9 13 7 18 10 NE 1024,3 4,5 0 0,0
23.01.2017 13:00:00 -1,6 -3,3 4 2 - - - 1024,9 4,0 0 0,0
23.01.2017 12:00:00 -2,4 -3,8 2 1 6 4 - 1025,8 3,8 0 0,0
23.01.2017 11:00:00 -2,6 -3,8 2 1 6 3 - 1026,0 3,2 0 0,0
23.01.2017 10:00:00 -3,1 -3,9 2 1 - - - 1026,0 2,7 0 0,0
23.01.2017 09:00:00 -3,2 -4,2 9 5 18 10 SE 1025,9 2,0 0 0,0
23.01.2017 08:00:00 -2,8 -3,7 4 2 9 5 - 1025,5 3,7 0 0,0
23.01.2017 07:00:00 -3,0 -3,7 4 2 - - - 1025,7 4,0 0 0,0
23.01.2017 06:00:00 -2,8 -3,8 4 2 6 4 - 1025,5 4,0 0 0,0
23.01.2017 05:00:00 -3,0 -3,7 2 1 8 5 - 1025,6 2,7 0 0,0
23.01.2017 04:00:00 -3,0 -3,9 4 2 - - NE 1025,9 2,8 0 0,0
23.01.2017 03:00:00 -2,9 -3,8 2 1 10 5 - 1026,1 3,0 0 0,0
23.01.2017 02:00:00 -2,7 -3,8 2 1 8 4 - 1026,2 3,5 0 0,0
23.01.2017 01:00:00 -2,5 -3,9 2 1 - - - 1026,4 3,6 0 0,0
23.01.2017 00:00:00 -2,6 -4,0 2 1 6 4 - 1026,8 4,0 0 0,0
22.01.2017 23:00:00 -2,6 -4,1 4 2 5 3 ENE 1026,7 4,5 0 0,0
22.01.2017 22:00:00 -2,6 -4,1 2 1 - - - 1026,7 4,7 0 0,0
22.01.2017 21:00:00 -2,6 -4,2 4 2 16 9 - 1026,6 4,7 0 0,0
22.01.2017 20:00:00 -2,6 -4,3 2 1 9 5 - 1026,5 4,8 0 0,0
22.01.2017 19:00:00 -2,5 -4,4 4 2 - - E 1026,3 4,9 0 0,0
22.01.2017 18:00:00 -2,6 -4,2 2 1 5 3 - 1026,1 4,8 0 0,0
22.01.2017 17:00:00 -2,7 -4,4 2 1 11 6 - 1025,9 4,9 0 0,0
22.01.2017 16:00:00 -2,8 -4,3 8 4 - - ENE 1025,8 4,9 0 0,0
22.01.2017 15:00:00 -2,8 -4,6 2 1 15 8 - 1025,6 4,7 0 0,0
22.01.2017 14:00:00 -2,9 -4,9 9 5 16 9 ENE 1025,8 4,7 0 0,0
22.01.2017 13:00:00 -3,0 -4,6 8 4 - - E 1026,6 4,7 0 0,0
22.01.2017 12:00:00 -2,7 -4,4 5 3 11 6 NNE 1027,2 4,6 0 0,0
22.01.2017 11:00:00 -3,4 -4,8 5 3 11 6 NNE 1027,6 4,8 0 0,0
22.01.2017 10:00:00 -3,4 -5,1 8 4 - - N 1027,2 4,5 0 0,0
22.01.2017 09:00:00 -3,3 -4,3 9 5 14 8 NE 1027,2 4,2 0 0,0
22.01.2017 08:00:00 -3,3 -4,4 4 2 12 6 N 1026,8 5 0 0,0
22.01.2017 07:00:00 -3,3 -4,7 5 3 - - NE 1027,0 5 0 0,0
22.01.2017 06:00:00 -3,2 -4,4 4 2 11 6 N 1026,9 5 0 0,0
22.01.2017 05:00:00 -3,4 -4,5 4 2 10 5 - 1027,5 5 0 0,0
22.01.2017 04:00:00 -3,4 -4,9 5 3 - - N 1028,1 5 0 0,0
22.01.2017 03:00:00 -3,6 -5,0 3 2 9 5 NNO 1028,7 5 0 0,0
22.01.2017 02:00:00 -3,6 -5,1 5 3 12 7 NNO 1028,8 5 0 0,0
22.01.2017 01:00:00 -3,1 -4,8 4 2 - - - 1029,1 5 0 0,0
22.01.2017 00:00:00 -2,7 -4,1 5 3 10 6 NE 1029,5 4,8 0 0,0
21.01.2017 23:00:00 -2,6 -4,1 4 2 14 7 ENE 1029,4 5 0 0,0
21.01.2017 22:00:00 -2,6 -4,0 5 3 - - N 1029,5 4,5 0 0,0
21.01.2017 21:00:00 -2,4 -3,8 8 4 19 11 NE 1029,3 4,3 0 0,0
21.01.2017 20:00:00 -2,0 -3,5 8 4 14 7 NE 1029,1 4,5 0 0,0
21.01.2017 19:00:00 -2,0 -3,7 5 3 - - N 1028,8 4,7 0 0,0
21.01.2017 18:00:00 -2,0 -4,0 4 2 11 6 N 1028,7 5 0 0,0
21.01.2017 17:00:00 -1,9 -4,1 4 2 13 7 - 1028,7 6 0 0,0
21.01.2017 16:00:00 -1,9 -4,4 8 4 - - NNE 1029,1 6 0 0,0
21.01.2017 15:00:00 -1,6 -4,5 8 4 16 9 NNE 1029,1 7 0 0,0
21.01.2017 14:00:00 -2,0 -4,2 8 4 14 8 N 1029,7 5 0 0,0
21.01.2017 13:00:00 -2,2 -4,3 5 3 - - N 1030,5 5 0 0,0
21.01.2017 12:00:00 -2,9 -4,6 5 3 13 7 NNE 1031,4 4,5 0 0,0
21.01.2017 11:00:00 -3,2 -4,8 4 2 10 5 - 1031,9 4,7 0 0,0
21.01.2017 10:00:00 -3,7 -5,1 4 2 - - - 1032,0 4,5 0 0,0
21.01.2017 09:00:00 -3,8 -5,2 5 3 11 6 N 1031,9 4,5 0 0,0
21.01.2017 08:00:00 -4,0 -5,4 5 3 11 6 N 1032,0 5 0 0,0
21.01.2017 07:00:00 -4,0 -5,2 5 3 - - NNO 1031,9 5 0 0,0
21.01.2017 06:00:00 -3,8 -5,3 5 3 14 8 N 1032,0 6 0 0,0
21.01.2017 05:00:00 -3,6 -5,0 8 4 16 9 N 1032,3 4,6 0 0,0
21.01.2017 04:00:00 -3,2 -4,8 8 4 - - NNE 1032,4 4,3 0 0,0
21.01.2017 03:00:00 -3,1 -4,7 5 3 10 5 NNE 1032,4 4,1 0 0,0
21.01.2017 02:00:00 -3,3 -5,0 4 2 8 5 NNE 1032,4 4,3 0 0,0
21.01.2017 01:00:00 -3,5 -5,2 5 3 - - N 1032,6 4,3 0 0,0
21.01.2017 00:00:00 -3,6 -5,5 5 3 13 7 NO 1032,8 4,6 0 0,0
20.01.2017 23:00:00 -3,5 -5,4 5 3 17 9 NNO 1032,9 5 0 0,0
20.01.2017 22:00:00 -3,2 -5,2 9 5 - - N 1032,7 5 0 0,0
20.01.2017 21:00:00 -3,0 -4,6 5 3 14 8 N 1032,6 5 0 0,0
20.01.2017 20:00:00 -2,8 -4,7 8 4 14 8 N 1032,5 5 0 0,0
20.01.2017 19:00:00 -2,7 -4,7 5 3 - - N 1032,2 6 0 0,0
20.01.2017 18:00:00 -2,4 -4,5 4 2 11 6 N 1032,2 6 0 0,0
20.01.2017 17:00:00 -2,6 -4,8 5 3 10 6 N 1032,1 8 0 0,0
20.01.2017 16:00:00 -2,4 -4,8 5 3 - - N 1032,2 8 0 0,0
20.01.2017 15:00:00 -2,6 -4,9 5 3 11 6 N 1032,3 8 0 0,0
20.01.2017 14:00:00 -2,7 -5,1 4 2 13 7 NNE 1032,4 8 0 0,0
20.01.2017 13:00:00 -2,7 -4,9 5 3 - - N 1032,9 8 0 0,0
20.01.2017 12:00:00 -2,9 -5,4 4 2 11 6 N 1033,5 8 0 0,0
20.01.2017 11:00:00 -3,0 -5,3 5 3 10 6 N 1033,9 8 0 0,0
20.01.2017 10:00:00 -3,4 -5,5 5 3 - - N 1033,8 8 0 0,0
20.01.2017 09:00:00 -3,7 -5,9 4 2 13 7 - 1033,7 8 0 0,0
20.01.2017 08:00:00 -3,7 -5,8 5 3 13 7 N 1033,4 8 0 0,0
20.01.2017 07:00:00 -3,5 -5,8 5 3 - - N 1033,1 8 0 0,0
20.01.2017 06:00:00 -3,6 -6,1 4 2 9 5 N 1032,9 8 0 0,0
20.01.2017 05:00:00 -3,8 -6,4 5 3 9 5 NO 1032,9 9 0 0,0
20.01.2017 04:00:00 -3,9 -6,8 2 1 - - - 1033,1 10 0 0,0
20.01.2017 03:00:00 -4,0 -6,9 4 2 15 8 - 1033,3 10 0 0,0
20.01.2017 02:00:00 -3,9 -6,7 5 3 16 8 N 1033,3 10 0 0,0
20.01.2017 01:00:00 -3,6 -6,7 5 3 - - N 1033,5 10 0 0,0
20.01.2017 00:00:00 -3,4 -6,6 8 4 14 8 N 1033,7 10 0 0,0
19.01.2017 23:00:00 -3,4 -6,6 9 5 18 10 N 1033,6 9 0 0,0
19.01.2017 22:00:00 -3,3 -6,5 9 5 - - N 1033,3 9 0 0,0
19.01.2017 21:00:00 -3,2 -6,3 8 4 19 10 N 1032,9 9 0 0,0
19.01.2017 20:00:00 -3,0 -6,3 5 3 13 7 N 1032,7 10 0 0,0
19.01.2017 19:00:00 -2,8 -6,6 8 4 - - N 1032,4 10 0 0,0
19.01.2017 18:00:00 -2,8 -6,9 5 3 16 9 N 1032,1 10 0 0,0
19.01.2017 17:00:00 -2,6 -6,4 9 5 16 9 N 1032,0 10 0 0,0
19.01.2017 16:00:00 -2,3 -6,9 11 6 - - NNE 1031,9 10 0 0,0
19.01.2017 15:00:00 -2,5 -6,6 11 6 21 12 N 1032,0 10 0 0,0
19.01.2017 14:00:00 -2,3 -6,4 11 6 21 11 N 1032,3 10 0 0,0
19.01.2017 13:00:00 -2,5 -6,5 11 6 - - N 1033,1 10 0 0,0
19.01.2017 12:00:00 -2,8 -8,0 13 7 24 13 N 1033,3 10 0 0,0
19.01.2017 11:00:00 -3,1 -7,8 9 5 23 12 N 1033,4 10 0 0,0
19.01.2017 10:00:00 -3,3 -7,5 13 7 - - NNE 1032,9 10 0 0,0
19.01.2017 09:00:00 -3,5 -8,2 12 7 29 15 N 1032,7 10 0 0,0
19.01.2017 08:00:00 -3,5 -7,8 16 8 27 15 N 1032,0 10 0 0,0
19.01.2017 07:00:00 -3,5 -7,8 16 8 - - N 1031,8 17 0 0,0
19.01.2017 06:00:00 -3,5 -8,0 15 8 28 15 N 1031,2 10 0 0,0
19.01.2017 05:00:00 -3,4 -8,1 13 7 31 17 NNE 1031,4 10 0 0,0
19.01.2017 04:00:00 -3,3 -8,0 16 9 - - N 1031,4 10 0 0,0
19.01.2017 03:00:00 -3,3 -8,2 13 7 27 14 N 1031,2 10 0 0,0
19.01.2017 02:00:00 -3,2 -8,4 15 8 31 17 N 1030,7 10 0 0,0
19.01.2017 01:00:00 -3,2 -8,8 16 9 - - NNE 1030,6 10 0 0,0
19.01.2017 00:00:00 -3,1 -8,7 16 9 41 22 N 1030,5 10 0 0,0
18.01.2017 23:00:00 -3,2 -8,8 18 10 39 21 NNE 1030,5 10 0 0,0
18.01.2017 22:00:00 -3,1 -8,5 18 10 - - NNE 1030,5 10 0 0,0
18.01.2017 21:00:00 -3,0 -8,9 22 12 36 19 NNE 1030,6 10 0 0,0
18.01.2017 20:00:00 -3,1 -8,9 18 10 37 20 NNE 1030,6 10 0 0,0
18.01.2017 19:00:00 -3,1 -8,5 21 11 - - NNE 1030,5 10 0 0,0
18.01.2017 18:00:00 -3,1 -8,5 18 10 35 19 NNE 1030,3 10 0 0,0
18.01.2017 17:00:00 -3,0 -8,5 16 9 39 21 NNE 1030,1 10 0 0,0
18.01.2017 16:00:00 -2,7 -8,6 18 10 - - NNE 1029,8 10 0 0,0
18.01.2017 15:00:00 -2,6 -8,7 18 10 35 19 NNE 1029,3 10 0 0,0
18.01.2017 14:00:00 -2,6 -7,8 18 10 36 19 NNE 1029,3 10 0 0,0
18.01.2017 13:00:00 -2,8 -9,0 21 11 - - NNE 1029,4 10 0 0,0
18.01.2017 12:00:00 -3,0 -8,7 24 13 40 22 NNE 1029,5 10 0 0,0
18.01.2017 11:00:00 -3,1 -8,3 18 10 41 22 NNE 1029,7 10 0 0,0
18.01.2017 10:00:00 -3,5 -8,4 24 13 - - NNE 1029,6 10 0 0,0
18.01.2017 09:00:00 -3,6 -8,3 21 11 42 23 NNE 1029,1 10 0 0,0
18.01.2017 08:00:00 -3,6 -9,1 21 11 37 20 NNE 1028,6 10 0 0,0
18.01.2017 07:00:00 -3,6 -9,4 22 12 - - NNE 1028,1 10 0 0,0
18.01.2017 06:00:00 -3,7 -9,1 24 13 45 25 NNE 1027,8 10 0 0,0
18.01.2017 05:00:00 -3,5 -9,0 24 13 45 25 NNE 1027,7 10 0 0,0
18.01.2017 04:00:00 -3,4 -8,9 24 13 - - NNE 1027,6 10 0 0,0
18.01.2017 03:00:00 -3,4 -9,0 22 12 41 22 NNE 1027,6 10 0 0,0
18.01.2017 02:00:00 -3,3 -8,5 22 12 48 26 NNE 1027,5 10 0 0,0
18.01.2017 01:00:00 -3,2 -8,7 22 12 - - NNE 1027,3 10 0 0,0
18.01.2017 00:00:00 -3,1 -8,1 26 14 46 25 NNE 1027,2 10 0 0,0
17.01.2017 23:00:00 -2,9 -8,0 26 14 46 25 NNE 1026,9 10 0 0,0
17.01.2017 22:00:00 -3,0 -8,3 28 15 - - NNE 1026,8 10 0 0,0
17.01.2017 21:00:00 -2,8 -8,1 34 18 63 34 NNE 1026,4 10 0 0,0
17.01.2017 20:00:00 -2,7 -8,4 37 20 70 38 NE 1026,2 10 0 0,0
17.01.2017 19:00:00 -2,7 -8,4 39 21 - - NE 1025,8 10 0 0,0

tt = Temperatura
td = dewpoint
ff = velocità del vento
fx = gusts
dd = direzione del vento
ppp = reduced air pressure
vv = visibility
sd = ore di luce
rr = precipitazioni

Stazioni seguenti

WeatherPro
AMSI
MeteoEarth